PERSEUS-M2

Last updated on Wed Oct 29 2025 00:03:53 GMT+0000 (Coordinated Universal Time)

1 40037U 14033AD 25301.62117104 .00002695 00000+0 25557-3 0 9996 2 40037 97.9679 243.0305 0012072 355.0139 5.0958 14.94391509616182
UTC large
Height (km)
Speed (km/s)
/
Latitude / Longitude
Inclination (degrees)
Orbital Period (minutes)
Azimuth
Elevation
Range (km)
Doppler Factor

Next 0 passes for location: London (51.5072 / 0.1276)

Sorry there are no passes over London.